• In Uzbekistan
  • List of Countries
  • For 7 days
  • Water Temperature
  • Satellite Maps
  • Weather Map
  • Weather Widgets
  • user-avatar
    Login

    Hourly Weather Trakt

    Today, 18 August, Saturday

    Time Temperature Precipitation Wind Pressure Humidity
    00:00 +7°C° 0 mm 1 mps 754 mmHg 92%
    01:00 +7°C° 0 mm 1 mps 755 mmHg 94%
    02:00 +7°C° 0 mm 1 mps 755 mmHg 95%
    03:00 +6°C° 0 mm 1 mps 755 mmHg 96%
    04:00 +7°C° 0 mm 1 mps 755 mmHg 91%
    05:00 +8°C° 0 mm 1 mps 755 mmHg 87%
    06:00 +10°C° 0 mm 1 mps 755 mmHg 82%
    07:00 +12°C° 0 mm 1 mps 755 mmHg 72%
    08:00 +14°C° 0 mm 1 mps 755 mmHg 62%
    09:00 +18°C° 0 mm 1 mps 755 mmHg 53%
    10:00 +19°C° 0 mm 1 mps 755 mmHg 48%
    11:00 +20°C° 0 mm 1 mps 755 mmHg 44%
    12:00 +21°C° 0 mm 1 mps 754 mmHg 40%
    13:00 +21°C° 0 mm 1 mps 754 mmHg 39%
    14:00 +22°C° 0 mm 1 mps 754 mmHg 38%
    15:00 +22°C° 0 mm 1 mps 753 mmHg 37%
    16:00 +21°C° 0 mm 1 mps 753 mmHg 43%
    17:00 +20°C° 0 mm 1 mps 753 mmHg 49%
    18:00 +19°C° 0 mm 1 mps 753 mmHg 55%
    19:00 +18°C° 0 mm 1 mps 753 mmHg 60%
    20:00 +15°C° 0 mm 1 mps 753 mmHg 64%
    21:00 +14°C° 0 mm 2 mps 753 mmHg 68%
    22:00 +14°C° 0 mm 2 mps 753 mmHg 71%
    23:00 +13°C° 0 mm 2 mps 753 mmHg 74%

    Tomorrow, 19 August, Sunday

    Time Temperature Precipitation Wind Pressure Humidity
    00:00 +13°C° 0 mm 2 mps 753 mmHg 77%
    01:00 +13°C° 0 mm 2 mps 752 mmHg 77%
    02:00 +14°C° 0 mm 2 mps 752 mmHg 78%
    03:00 +14°C° 0 mm 2 mps 752 mmHg 79%
    04:00 +14°C° 0 mm 2 mps 752 mmHg 78%
    05:00 +15°C° 0 mm 2 mps 752 mmHg 77%
    06:00 +15°C° 0 mm 2 mps 752 mmHg 76%
    07:00 +17°C° 0 mm 2 mps 752 mmHg 72%
    08:00 +18°C° 0 mm 2 mps 751 mmHg 68%
    09:00 +19°C° 0 mm 3 mps 751 mmHg 65%
    10:00 +21°C° 0 mm 3 mps 751 mmHg 58%
    11:00 +22°C° 0 mm 3 mps 750 mmHg 51%
    12:00 +25°C° 0 mm 4 mps 750 mmHg 45%
    13:00 +25°C° 0 mm 4 mps 750 mmHg 44%
    14:00 +25°C° 0 mm 4 mps 749 mmHg 44%
    15:00 +25°C° 0 mm 4 mps 749 mmHg 43%
    16:00 +24°C° 0 mm 3 mps 748 mmHg 48%
    17:00 +22°C° 0 mm 3 mps 748 mmHg 52%
    18:00 +21°C° 0 mm 2 mps 747 mmHg 57%
    19:00 +20°C° 0 mm 2 mps 747 mmHg 62%
    20:00 +18°C° 0 mm 2 mps 747 mmHg 66%
    21:00 +17°C° 0 mm 3 mps 747 mmHg 71%
    22:00 +16°C° 0 mm 3 mps 747 mmHg 75%
    23:00 +16°C° 0 mm 3 mps 746 mmHg 78%

    Day after tomorrow, 20 August, Monday

    Time Temperature Precipitation Wind Pressure Humidity
    00:00 +14°C° 0 mm 3 mps 746 mmHg 81%
    01:00 +14°C° 0 mm 3 mps 745 mmHg 83%
    02:00 +13°C° 0 mm 3 mps 745 mmHg 86%
    03:00 +13°C° 0 mm 3 mps 745 mmHg 88%
    04:00 +13°C° 0 mm 3 mps 744 mmHg 87%
    05:00 +14°C° 0 mm 3 mps 744 mmHg 86%
    06:00 +14°C° 0 mm 3 mps 744 mmHg 85%
    07:00 +16°C° 0.3 mm 3 mps 744 mmHg 88%
    08:00 +16°C° 0.3 mm 3 mps 743 mmHg 91%
    09:00 +16°C° 0.3 mm 3 mps 743 mmHg 94%
    10:00 +16°C° 0.4 mm 3 mps 743 mmHg 94%
    11:00 +17°C° 0.4 mm 3 mps 743 mmHg 94%
    12:00 +17°C° 0.4 mm 3 mps 743 mmHg 94%
    13:00 +17°C° 0.5 mm 3 mps 743 mmHg 93%
    14:00 +17°C° 0.5 mm 3 mps 743 mmHg 93%
    15:00 +17°C° 0.5 mm 3 mps 743 mmHg 92%
    16:00 +18°C° 0.3 mm 2 mps 743 mmHg 92%
    17:00 +18°C° 0.3 mm 2 mps 743 mmHg 92%
    18:00 +18°C° 0.3 mm 2 mps 743 mmHg 92%
    19:00 +18°C° 0.1 mm 1 mps 743 mmHg 94%
    20:00 +16°C° 0.1 mm 1 mps 743 mmHg 95%
    21:00 +15°C° 0.1 mm 1 mps 743 mmHg 96%
    22:00 +14°C° 0 mm 1 mps 743 mmHg 96%
    23:00 +13°C° 0 mm 1 mps 743 mmHg 96%

    21 August, Tuesday

    Time Temperature Precipitation Wind Pressure Humidity
    00:00 +13°C° 0 mm 1 mps 743 mmHg 96%
    01:00 +13°C° 0.1 mm 1 mps 743 mmHg 96%
    02:00 +13°C° 0.1 mm 1 mps 743 mmHg 95%
    03:00 +12°C° 0.1 mm 0 mps 743 mmHg 95%
    04:00 +12°C° 0.5 mm 0 mps 743 mmHg 96%
    05:00 +13°C° 0.5 mm 0 mps 743 mmHg 96%
    06:00 +13°C° 0.5 mm 0 mps 743 mmHg 96%
    07:00 +15°C° 0.5 mm 1 mps 743 mmHg 93%
    08:00 +16°C° 0.5 mm 1 mps 743 mmHg 89%
    09:00 +18°C° 0.5 mm 1 mps 743 mmHg 85%
    10:00 +18°C° 0.1 mm 2 mps 744 mmHg 72%
    11:00 +19°C° 0.1 mm 2 mps 744 mmHg 59%
    12:00 +20°C° 0.1 mm 3 mps 744 mmHg 46%
    13:00 +21°C° 0 mm 3 mps 744 mmHg 43%
    14:00 +21°C° 0 mm 3 mps 744 mmHg 41%
    15:00 +21°C° 0 mm 3 mps 744 mmHg 39%
    16:00 +20°C° 0 mm 2 mps 744 mmHg 45%
    17:00 +19°C° 0 mm 2 mps 744 mmHg 51%
    18:00 +19°C° 0 mm 1 mps 744 mmHg 57%
    19:00 +16°C° 0 mm 1 mps 744 mmHg 61%
    20:00 +14°C° 0 mm 1 mps 744 mmHg 66%
    21:00 +13°C° 0 mm 1 mps 744 mmHg 70%
    22:00 +11°C° 0 mm 0 mps 744 mmHg 73%
    23:00 +10°C° 0 mm 0 mps 744 mmHg 75%

    22 August, Wednesday

    Time Temperature Precipitation Wind Pressure Humidity
    00:00 +10°C° 0 mm 0 mps 744 mmHg 77%
    01:00 +10°C° 0 mm 0 mps 744 mmHg 77%
    02:00 +11°C° 0 mm 1 mps 744 mmHg 78%
    03:00 +10°C° 0 mm 1 mps 744 mmHg 78%
    04:00 +11°C° 0 mm 1 mps 743 mmHg 75%
    05:00 +12°C° 0 mm 2 mps 743 mmHg 72%
    06:00 +13°C° 0 mm 2 mps 742 mmHg 69%
    07:00 +13°C° 0.1 mm 2 mps 742 mmHg 72%
    08:00 +12°C° 0.1 mm 3 mps 741 mmHg 74%
    09:00 +12°C° 0.1 mm 3 mps 740 mmHg 77%
    10:00 +12°C° 0.8 mm 3 mps 739 mmHg 80%
    11:00 +13°C° 0.8 mm 4 mps 738 mmHg 83%
    12:00 +13°C° 0.8 mm 4 mps 737 mmHg 87%
    13:00 +13°C° 2.5 mm 4 mps 736 mmHg 89%
    14:00 +13°C° 2.5 mm 5 mps 736 mmHg 91%
    15:00 +12°C° 2.5 mm 5 mps 735 mmHg 94%
    16:00 +13°C° 3.5 mm 5 mps 734 mmHg 94%
    17:00 +13°C° 3.5 mm 5 mps 733 mmHg 95%
    18:00 +13°C° 3.5 mm 4 mps 733 mmHg 96%
    19:00 +13°C° 2.4 mm 4 mps 732 mmHg 97%
    20:00 +13°C° 2.4 mm 3 mps 732 mmHg 97%
    21:00 +13°C° 2.4 mm 3 mps 731 mmHg 98%
    22:00 +14°C° 0.4 mm 2 mps 731 mmHg 98%
    23:00 +14°C° 0.4 mm 2 mps 731 mmHg 98%

    23 August, Thursday

    Time Temperature Precipitation Wind Pressure Humidity
    00:00 +14°C° 0.4 mm 2 mps 730 mmHg 98%
    01:00 +13°C° 0.1 mm 2 mps 730 mmHg 98%
    02:00 +13°C° 0.1 mm 2 mps 730 mmHg 98%
    03:00 +13°C° 0.1 mm 2 mps 730 mmHg 98%
    04:00 +13°C° 0.2 mm 2 mps 731 mmHg 98%
    05:00 +12°C° 0.2 mm 3 mps 731 mmHg 97%
    06:00 +11°C° 0.2 mm 3 mps 731 mmHg 97%
    07:00 +11°C° 0.2 mm 3 mps 731 mmHg 97%
    08:00 +11°C° 0.2 mm 4 mps 732 mmHg 96%
    09:00 +11°C° 0.2 mm 4 mps 732 mmHg 96%
    10:00 +11°C° 0.2 mm 4 mps 732 mmHg 95%
    11:00 +9°C° 0.2 mm 5 mps 733 mmHg 94%
    12:00 +9°C° 0.2 mm 5 mps 733 mmHg 94%
    13:00 +9°C° 0.1 mm 5 mps 734 mmHg 94%
    14:00 +8°C° 0.1 mm 5 mps 734 mmHg 94%
    15:00 +8°C° 0.1 mm 5 mps 735 mmHg 94%
    16:00 +8°C° 0.2 mm 5 mps 735 mmHg 94%
    17:00 +8°C° 0.2 mm 5 mps 735 mmHg 94%
    18:00 +8°C° 0.2 mm 5 mps 735 mmHg 94%
    19:00 +8°C° 0.6 mm 5 mps 735 mmHg 95%
    20:00 +8°C° 0.6 mm 5 mps 735 mmHg 95%
    21:00 +8°C° 0.6 mm 5 mps 734 mmHg 96%
    22:00 +8°C° 1.2 mm 5 mps 734 mmHg 96%
    23:00 +8°C° 1.2 mm 5 mps 734 mmHg 96%
    Show more